Weather History for GMFM - October, 2011

Change the Weather History Date:

Wednesday, October 5, 2011

  Actual Average Record
Temperature  
Mean Temperature 73 °F -  
Max Temperature 87 °F - - ()
Min Temperature 59 °F - - ()
Cooling Degree Days 8    
Growing Degree Days 23 (Base 50)    
Moisture  
Dew Point 44 °F    
Average Humidity 36    
Maximum Humidity 59    
Minimum Humidity 10    
Precipitation  
Precipitation 0.00 in - - ()
Sea Level Pressure  
Sea Level Pressure 30.09 in    
Wind  
Wind Speed 9 mph ()    
Max Wind Speed 15 mph    
Max Gust Speed -    
Visibility 6.1 miles    
Events      
T = Trace of Precipitation, MM = Missing Value Source: Averaged Metar Reports

Daily Weather History Graph

Daily Weather History Graph

Search for Another Location

Airport or City:

Trip Planner

Search our weather history database for the weather conditions in past years. The results will help you decide how hot, cold, wet, or windy it might be!

Date:

Astronomy

Oct. 05, 2011 Rise Set
Actual Time 6:19 AM WET 6:01 PM WET
Civil Twilight 5:54 AM WET 6:26 PM WET
Nautical Twilight 5:25 AM WET 6:55 PM WET
Astronomical Twilight 4:56 AM WET 7:24 PM WET
Moon 2:18 PM WET (10/5) 12:07 AM WET (10/5)
Length of Visible Light 12h 32m
Length of Day
11h 42m
Waxing Gibbous, 64% of the Moon is Illuminated
Oct 5
Waxing Gibbous
Oct 12
Full
Oct 20
Last Quarter
Oct 26
New
Nov 2
First Quarter

Hourly Weather History & Observations

Time (WET) Temp. Dew Point Humidity Pressure Visibility Wind Dir Wind Speed Gust Speed Precip Events Conditions
12:00 AM 66.2 °F 42.8 °F 43% 30.15 in - East 10.4 mph - N/A   Clear
1:00 AM 64.4 °F 42.8 °F 45% 30.15 in - East 10.4 mph - N/A   Clear
2:00 AM 64.4 °F 42.8 °F 45% 30.12 in - ESE 8.1 mph - N/A   Clear
3:00 AM 63 °F 47 °F 44%  in 6 mi ESE 10.4 mph - -  
3:00 AM 62.6 °F 46.4 °F 55% 30.09 in - ESE 10.4 mph - N/A   Clear
4:00 AM 62.6 °F 46.4 °F 55% 30.09 in - East 10.4 mph - N/A   Clear
5:00 AM 60.8 °F 44.6 °F 55% 30.09 in - ESE 8.1 mph - N/A   Clear
6:00 AM 60 °F 44 °F 45% 30.09 in 6 mi ESE 10.4 mph - -  
6:00 AM 60.8 °F 44.6 °F 55% 30.12 in - ESE 10.4 mph - N/A   Clear
7:00 AM 60.8 °F 46.4 °F 59% 30.12 in - East 11.5 mph - N/A   Clear
8:00 AM 66.2 °F 50.0 °F 56% 30.12 in - East 11.5 mph - N/A   Clear
9:00 AM 70 °F 50 °F 38% 30.08 in 6 mi East 11.5 mph - -  
9:00 AM 69.8 °F 50.0 °F 49% 30.15 in - East 11.5 mph - N/A   Clear
10:00 AM 75.2 °F 51.8 °F 44% 30.15 in 6.2 mi ENE 12.7 mph - N/A   Partly Cloudy
11:00 AM 78.8 °F 50.0 °F 36% 30.12 in 6.2 mi ENE 15.0 mph - N/A   Partly Cloudy
12:00 PM 82 °F 48 °F 20% 30.01 in 6 mi NE 15.0 mph - -   Scattered Clouds
12:00 PM 82.4 °F 48.2 °F 30% 30.12 in 6.2 mi NE 15.0 mph - N/A   Partly Cloudy
1:00 PM 84.2 °F 48.2 °F 29% 30.09 in 6.2 mi NE 11.5 mph - N/A   Scattered Clouds
2:00 PM 86.0 °F 48.2 °F 27% 30.06 in 6.2 mi NE 11.5 mph - N/A   Scattered Clouds
3:00 PM 88 °F 44 °F 13% 29.93 in 6 mi NE 6.9 mph - -   Partly Cloudy
3:00 PM 87.8 °F 44.6 °F 22% 30.06 in 6.2 mi NE 6.9 mph - N/A   Scattered Clouds
4:00 PM 86.0 °F 41.0 °F 20% 30.06 in 6.2 mi NE 5.8 mph - N/A   Scattered Clouds
5:00 PM 86.0 °F 42.8 °F 22% 30.06 in 6.2 mi NE 9.2 mph - N/A   Partly Cloudy
6:00 PM 83 °F 36 °F 10% 29.96 in 6 mi East 10.4 mph - -   Scattered Clouds
6:00 PM 84.2 °F 35.6 °F 18% 30.06 in 6.2 mi East 10.4 mph - N/A   Partly Cloudy
7:00 PM 77.0 °F 33.8 °F 21% 30.09 in 6.2 mi ENE 5.8 mph - N/A   Partly Cloudy
8:00 PM 75.2 °F 35.6 °F 24% 30.12 in 6.2 mi ESE 6.9 mph - N/A   Partly Cloudy
9:00 PM 72 °F 37 °F 17% 30.07 in 6 mi ESE 9.2 mph - -   Scattered Clouds
9:00 PM 73.4 °F 46.4 °F 38% 30.12 in 6.2 mi ESE 9.2 mph - N/A   Partly Cloudy
10:00 PM 68.0 °F 37.4 °F 33% 30.15 in - East 10.4 mph - N/A   Clear
11:00 PM 69.8 °F 39.2 °F 33% 30.15 in - East 9.2 mph - N/A   Clear